Location: Unspecified
(35.6961°N, 0.0000°E)
Time: 00:48:04
(UTC+00:00)

Altair - Pass Details

Date: 22 May 2019
Orbit: 1501 x 1683 km, 47.2° (Epoch: 14 June)

Event Time Altitude Azimuth Distance (km) Brightness Sun altitude
Rises 01:36:02 0° 189° (S) 4,849 - -29.3°
Reaches altitude 10° 01:39:51 10° 177° (S) 3,889 - -28.9°
Exits shadow 01:44:36 23° 151° (SSE) 3,037 8.7 -28.4°
Maximum altitude 01:47:33 26° 126° (SE) 2,868 8.8 -28.1°
Drops below altitude 10° 01:55:20 10° 75° (ENE) 3,946 10.2 -27.3°
Sets 01:59:11 0° 64° (ENE) 4,935 11.0 -26.9°
